Time,TemperatureF,DewpointF,PressureIn,WindDirection,WindDirectionDegrees,WindSpeedMPH,WindSpeedGustMPH,Humidity,HourlyPrecipIn,Conditions,Clouds,dailyrainin,SoftwareType,DateUTC
2013-07-15 00:04:00,67.6,65.0,30.44,North,350,0.0,4.0,91,0.00,,,0.00,weatherlink.com 1.10,2013-07-15 04:04:00,
2013-07-15 00:19:00,67.9,65.0,30.44,ENE,62,1.0,8.0,91,0.00,,,0.00,weatherlink.com 1.10,2013-07-15 04:19:00,
2013-07-15 00:34:00,67.7,65.0,30.45,SE,140,0.0,11.0,91,0.00,,,0.00,weatherlink.com 1.10,2013-07-15 04:34:00,
2013-07-15 00:49:00,67.2,65.0,30.45,SE,138,0.0,4.0,91,0.00,,,0.00,weatherlink.com 1.10,2013-07-15 04:49:00,
2013-07-15 01:04:00,66.9,65.0,30.44,SE,130,3.0,7.0,92,0.00,,,0.00,weatherlink.com 1.10,2013-07-15 05:04:00,
2013-07-15 01:19:00,67.0,65.0,30.44,SE,136,4.0,8.0,92,0.00,,,0.00,weatherlink.com 1.10,2013-07-15 05:19:00,
2013-07-15 01:34:00,67.0,65.0,30.45,SE,128,2.0,5.0,92,0.00,,,0.00,weatherlink.com 1.10,2013-07-15 05:34:00,
2013-07-15 01:49:00,66.9,65.0,30.44,NNW,333,0.0,8.0,92,0.00,,,0.00,weatherlink.com 1.10,2013-07-15 05:49:00,
2013-07-15 02:04:00,66.6,65.0,30.45,ESE,107,0.0,6.0,93,0.00,,,0.00,weatherlink.com 1.10,2013-07-15 06:04:00,
2013-07-15 02:19:00,66.4,64.0,30.45,WSW,257,2.0,6.0,93,0.00,,,0.00,weatherlink.com 1.10,2013-07-15 06:19:00,
2013-07-15 02:34:00,66.2,65.0,30.44,SE,132,0.0,4.0,94,0.00,,,0.00,weatherlink.com 1.10,2013-07-15 06:34:00,
2013-07-15 02:49:00,66.2,65.0,30.43,ESE,117,2.0,8.0,94,0.00,,,0.00,weatherlink.com 1.10,2013-07-15 06:49:00,
2013-07-15 03:04:00,66.2,65.0,30.44,SE,128,0.0,8.0,94,0.00,,,0.00,weatherlink.com 1.10,2013-07-15 07:04:00,
2013-07-15 03:19:00,66.2,65.0,30.44,SE,124,0.0,5.0,94,0.00,,,0.00,weatherlink.com 1.10,2013-07-15 07:19:00,
2013-07-15 03:34:00,65.9,64.0,30.44,SE,126,0.0,5.0,94,0.00,,,0.00,weatherlink.com 1.10,2013-07-15 07:34:00,
2013-07-15 03:49:00,66.0,65.0,30.44,SE,138,3.0,7.0,95,0.00,,,0.00,weatherlink.com 1.10,2013-07-15 07:49:00,
2013-07-15 04:04:00,66.0,65.0,30.44,SE,128,3.0,5.0,95,0.00,,,0.00,weatherlink.com 1.10,2013-07-15 08:04:00,
2013-07-15 04:20:00,65.9,65.0,30.44,SE,132,1.0,7.0,95,0.00,,,0.00,weatherlink.com 1.10,2013-07-15 08:20:00,
2013-07-15 04:35:00,65.9,65.0,30.44,SE,144,7.0,7.0,95,0.00,,,0.00,weatherlink.com 1.10,2013-07-15 08:35:00,
2013-07-15 04:50:00,65.8,64.0,30.44,ESE,115,0.0,11.0,95,0.00,,,0.00,weatherlink.com 1.10,2013-07-15 08:50:00,
2013-07-15 05:05:00,65.7,64.0,30.44,South,181,0.0,8.0,95,0.00,,,0.00,weatherlink.com 1.10,2013-07-15 09:05:00,
2013-07-15 05:20:00,65.5,64.0,30.44,SE,142,0.0,5.0,95,0.00,,,0.00,weatherlink.com 1.10,2013-07-15 09:20:00,
2013-07-15 05:35:00,65.4,64.0,30.44,SE,132,2.0,6.0,95,0.00,,,0.00,weatherlink.com 1.10,2013-07-15 09:35:00,
2013-07-15 05:50:00,65.4,64.0,30.44,SE,136,6.0,10.0,95,0.00,,,0.00,weatherlink.com 1.10,2013-07-15 09:50:00,
2013-07-15 06:05:00,65.5,64.0,30.44,East,101,6.0,9.0,95,0.00,,,0.00,weatherlink.com 1.10,2013-07-15 10:05:00,
2013-07-15 06:20:00,65.7,64.0,30.44,SE,138,0.0,8.0,94,0.00,,,0.00,weatherlink.com 1.10,2013-07-15 10:20:00,
2013-07-15 06:35:00,65.6,64.0,30.45,SSE,161,0.0,3.0,94,0.00,,,0.00,weatherlink.com 1.10,2013-07-15 10:35:00,
2013-07-15 06:50:00,65.3,64.0,30.45,SSE,165,0.0,0.0,94,0.00,,,0.00,weatherlink.com 1.10,2013-07-15 10:50:00,
2013-07-15 07:05:00,65.0,63.0,30.46,SSE,165,0.0,0.0,94,0.00,,,0.00,weatherlink.com 1.10,2013-07-15 11:05:00,
2013-07-15 07:20:00,65.2,64.0,30.46,SE,141,2.0,4.0,95,0.00,,,0.00,weatherlink.com 1.10,2013-07-15 11:20:00,
2013-07-15 07:35:00,65.4,64.0,30.46,SE,141,0.0,0.0,94,0.00,,,0.00,weatherlink.com 1.10,2013-07-15 11:35:00,
2013-07-15 07:50:00,65.9,64.0,30.47,SE,132,0.0,4.0,94,0.00,,,0.00,weatherlink.com 1.10,2013-07-15 11:50:00,
2013-07-15 08:05:00,66.4,64.0,30.47,East,86,0.0,3.0,93,0.00,,,0.00,weatherlink.com 1.10,2013-07-15 12:05:00,
2013-07-15 08:20:00,67.1,65.0,30.48,SE,141,5.0,8.0,92,0.00,,,0.00,weatherlink.com 1.10,2013-07-15 12:20:00,
2013-07-15 08:35:00,67.6,65.0,30.48,SE,126,0.0,6.0,91,0.00,,,0.00,weatherlink.com 1.10,2013-07-15 12:35:00,
2013-07-15 08:50:00,68.3,65.0,30.48,ESE,121,0.0,9.0,90,0.00,,,0.00,weatherlink.com 1.10,2013-07-15 12:50:00,
2013-07-15 09:05:00,68.9,65.0,30.48,East,98,2.0,7.0,88,0.00,,,0.00,weatherlink.com 1.10,2013-07-15 13:05:00,
2013-07-15 09:20:00,69.2,65.0,30.48,ESE,116,4.0,10.0,86,0.00,,,0.00,weatherlink.com 1.10,2013-07-15 13:20:00,
2013-07-15 09:35:00,69.9,66.0,30.48,ENE,66,0.0,8.0,86,0.00,,,0.00,weatherlink.com 1.10,2013-07-15 13:35:00,
2013-07-15 09:50:00,71.0,65.0,30.48,SE,130,0.0,4.0,81,0.00,,,0.00,weatherlink.com 1.10,2013-07-15 13:50:00,
2013-07-15 10:05:00,71.0,65.0,30.48,SE,136,3.0,11.0,81,0.00,,,0.00,weatherlink.com 1.10,2013-07-15 14:05:00,
2013-07-15 10:20:00,72.0,65.0,30.49,South,175,3.0,6.0,79,0.00,,,0.00,weatherlink.com 1.10,2013-07-15 14:20:00,
2013-07-15 10:35:00,73.2,66.0,30.49,ESE,111,3.0,4.0,77,0.00,,,0.00,weatherlink.com 1.10,2013-07-15 14:35:00,
2013-07-15 10:50:00,74.9,66.0,30.49,ESE,119,0.0,4.0,73,0.00,,,0.00,weatherlink.com 1.10,2013-07-15 14:50:00,
2013-07-15 11:05:00,74.4,66.0,30.49,SE,141,0.0,8.0,75,0.00,,,0.00,weatherlink.com 1.10,2013-07-15 15:05:00,
2013-07-15 11:20:00,75.8,65.0,30.49,ESE,115,0.0,6.0,69,0.00,,,0.00,weatherlink.com 1.10,2013-07-15 15:20:00,
2013-07-15 11:35:00,74.4,65.0,30.49,West,263,0.0,6.0,73,0.00,,,0.00,weatherlink.com 1.10,2013-07-15 15:35:00,
2013-07-15 11:50:00,74.6,65.0,30.49,SW,233,1.0,6.0,72,0.00,,,0.00,weatherlink.com 1.10,2013-07-15 15:50:00,
2013-07-15 12:20:00,76.1,65.0,30.48,East,101,0.0,7.0,68,0.00,,,0.00,weatherlink.com 1.10,2013-07-15 16:20:00,
2013-07-15 12:35:00,76.6,65.0,30.48,SSE,150,5.0,11.0,68,0.00,,,0.00,weatherlink.com 1.10,2013-07-15 16:35:00,
2013-07-15 13:05:00,77.6,65.0,30.47,SE,127,0.0,10.0,65,0.00,,,0.00,weatherlink.com 1.10,2013-07-15 17:05:00,
2013-07-15 14:06:00,78.4,65.0,30.45,WNW,294,0.0,2.0,63,0.00,,,0.00,weatherlink.com 1.10,2013-07-15 18:06:00,
2013-07-15 14:21:00,78.5,65.0,30.45,NNW,327,0.0,3.0,63,0.00,,,0.00,weatherlink.com 1.10,2013-07-15 18:21:00,
2013-07-15 14:36:00,79.5,64.0,30.45,SE,142,1.0,6.0,60,0.00,,,0.00,weatherlink.com 1.10,2013-07-15 18:36:00,
2013-07-15 14:51:00,80.6,65.0,30.45,ESE,107,0.0,4.0,59,0.00,,,0.00,weatherlink.com 1.10,2013-07-15 18:51:00,
2013-07-15 15:06:00,79.3,66.0,30.44,NW,317,3.0,6.0,63,0.00,,,0.00,weatherlink.com 1.10,2013-07-15 19:06:00,
2013-07-15 15:21:00,80.7,67.0,30.44,SSW,200,3.0,3.0,64,0.00,,,0.00,weatherlink.com 1.10,2013-07-15 19:21:00,
2013-07-15 15:36:00,79.3,65.0,30.44,SW,234,0.0,6.0,61,0.00,,,0.00,weatherlink.com 1.10,2013-07-15 19:36:00,
2013-07-15 15:51:00,80.0,64.0,30.43,SSE,156,2.0,7.0,58,0.00,,,0.00,weatherlink.com 1.10,2013-07-15 19:51:00,
2013-07-15 16:21:00,81.4,62.0,30.42,South,179,0.0,3.0,52,0.00,,,0.00,weatherlink.com 1.10,2013-07-15 20:21:00,
2013-07-15 16:36:00,81.7,61.0,30.42,NW,321,0.0,4.0,50,0.00,,,0.00,weatherlink.com 1.10,2013-07-15 20:36:00,
2013-07-15 17:06:00,80.5,60.0,30.42,WNW,299,0.0,3.0,50,0.00,,,0.00,weatherlink.com 1.10,2013-07-15 21:06:00,
2013-07-15 17:21:00,80.6,62.0,30.42,SE,146,5.0,8.0,54,0.00,,,0.00,weatherlink.com 1.10,2013-07-15 21:21:00,
2013-07-15 17:36:00,80.5,64.0,30.41,East,89,0.0,4.0,58,0.00,,,0.00,weatherlink.com 1.10,2013-07-15 21:36:00,
2013-07-15 18:06:00,80.3,62.0,30.41,SE,128,5.0,5.0,53,0.00,,,0.00,weatherlink.com 1.10,2013-07-15 22:06:00,
2013-07-15 18:21:00,80.6,62.0,30.41,NW,304,2.0,2.0,53,0.00,,,0.00,weatherlink.com 1.10,2013-07-15 22:21:00,
2013-07-15 18:36:00,80.0,61.0,30.40,SE,140,1.0,7.0,53,0.00,,,0.00,weatherlink.com 1.10,2013-07-15 22:36:00,
2013-07-15 19:06:00,78.7,61.0,30.41,SSE,152,0.0,4.0,55,0.00,,,0.00,weatherlink.com 1.10,2013-07-15 23:06:00,
2013-07-15 19:21:00,77.9,62.0,30.41,SSE,147,0.0,3.0,58,0.00,,,0.00,weatherlink.com 1.10,2013-07-15 23:21:00,
2013-07-15 19:36:00,76.8,64.0,30.41,SSE,148,0.0,1.0,65,0.00,,,0.00,weatherlink.com 1.10,2013-07-15 23:36:00,
2013-07-15 20:06:00,72.7,66.0,30.41,SSE,148,0.0,0.0,78,0.00,,,0.00,weatherlink.com 1.10,2013-07-16 00:06:00,
2013-07-15 20:21:00,71.2,65.0,30.41,SSE,148,0.0,0.0,80,0.00,,,0.00,weatherlink.com 1.10,2013-07-16 00:21:00,
2013-07-15 20:36:00,69.9,65.0,30.41,SSE,148,0.0,0.0,83,0.00,,,0.00,weatherlink.com 1.10,2013-07-16 00:36:00,
2013-07-15 20:51:00,68.8,64.0,30.40,SSE,148,0.0,0.0,84,0.00,,,0.00,weatherlink.com 1.10,2013-07-16 00:51:00,
2013-07-15 21:06:00,68.0,64.0,30.41,SSE,148,0.0,0.0,87,0.00,,,0.00,weatherlink.com 1.10,2013-07-16 01:06:00,
2013-07-15 21:21:00,67.3,64.0,30.41,SSE,148,0.0,0.0,88,0.00,,,0.00,weatherlink.com 1.10,2013-07-16 01:21:00,
2013-07-15 21:36:00,66.5,63.0,30.42,SSE,148,0.0,0.0,89,0.00,,,0.00,weatherlink.com 1.10,2013-07-16 01:36:00,
2013-07-15 21:51:00,65.9,63.0,30.42,SSE,148,0.0,0.0,90,0.00,,,0.00,weatherlink.com 1.10,2013-07-16 01:51:00,
2013-07-15 22:36:00,64.8,63.0,30.44,SSE,148,0.0,0.0,92,0.00,,,0.00,weatherlink.com 1.10,2013-07-16 02:36:00,
2013-07-15 22:51:00,64.4,62.0,30.44,SSE,148,0.0,0.0,93,0.00,,,0.00,weatherlink.com 1.10,2013-07-16 02:51:00,
2013-07-15 23:21:00,63.9,62.0,30.44,SSE,148,0.0,0.0,94,0.00,,,0.00,weatherlink.com 1.10,2013-07-16 03:21:00,
2013-07-15 23:36:00,63.8,62.0,30.44,SSE,148,0.0,0.0,94,0.00,,,0.00,weatherlink.com 1.10,2013-07-16 03:36:00,
2013-07-15 23:51:00,65.4,64.0,30.44,SSE,148,0.0,2.0,95,0.00,,,0.00,weatherlink.com 1.10,2013-07-16 03:51:00,